Temp
62 61 61 61 61 61 61 61 61 61 61 62 62 62 62 62 61 62 64 76 77 77 79 86 85 84 82 77 81 79 63 63 69 74 69 76 72 77 74 68 71 74 79 87 90
61 61 61 60 60 60 61 61 61 61 61 61 62 62 62 62 61 67 78 78 78 78 83 80 78 81 73 74 75 70 61 67 81 77 69 68 68 68 72 71 71 71 85 91 91
60 60 60 60 60 60 60 60 60 61 61 61 62 62 62 61 61 74 77 80 76 79 82 82 82 76 70 72 74 72 67 76 80 77 75 69 70 71 72 69 75 74 76 78 78
60 60 60 60 60 59 60 60 60 61 61 61 62 62 62 63 58 77 77 76 76 83 81 79 77 64 66 68 76 68 78 79 80 80 77 69 72 70 72 71 79 77 77 74 71
59 59 60 59 59 59 59 59 59 60 60 61 61 62 62 63 67 80 77 77 79 81 80 78 72 69 65 71 74 73 79 80 80 79 76 77 72 70 70 76 78 77 75 72 69
59 59 59 59 59 59 58 58 59 59 60 61 62 62 61 61 86 84 84 81 85 81 80 78 78 79 74 73 72 80 79 78 76 75 75 70 70 71 71 75 73 71 69 70 68
59 59 59 59 59 59 58 58 58 59 60 61 62 67 67 68 89 86 87 82 84 87 83 86 87 80 79 74 80 79 71 75 74 73 72 74 65 65 72 73 69 69 67 68 67
58 58 59 59 59 59 59 58 59 61 61 62 63 64 60 85 87 85 88 87 89 89 88 89 88 80 71 77 78 71 69 60 71 74 74 71 56 68 72 70 66 68 67 65 65
59 58 58 58 58 59 58 58 60 62 62 64 60 60 65 87 85 89 91 87 89 90 88 98 83 75 77 67 62 65 57 62 66 74 72 68 58 69 73 71 66 65 65 64 63
58 58 58 58 58 58 57 58 61 61 63 72 74 63 71 78 88 91 91 92 87 85 82 79 72 64 63 58 52 58 60 62 64 70 70 65 60 68 71 68 66 65 64 63 62
58 58 57 58 58 57 56 57 59 59 65 67 71 73 84 90 93 87 91 88 86 78 66 72 61 56 63 68 71 71 66 67 70 74 68 63 61 65 68 65 63 62 61 60 60
58 58 58 58 58 58 55 64 75 78 67 75 77 78 87 90 83 86 91 78 75 67 72 66 59 70 75 75 73 72 66 61 68 75 64 61 59 62 65 63 63 63 61 60 59
57 57 57 58 58 53 62 73 84 82 66 76 82 79 81 86 81 82 86 80 73 68 68 63 70 79 77 73 72 68 65 63 64 69 67 62 55 60 64 65 65 64 62 61 59
57 57 57 58 55 69 70 80 81 80 56 70 76 83 84 85 78 91 90 81 74 69 70 68 77 77 75 73 73 61 73 73 68 59 50 62 43 55 60 59 61 59 59 58 58
57 57 57 55 55 68 82 87 84 76 43 77 82 95 89 80 81 83 90 82 71 72 71 67 71 71 71 73 75 68 75 70 67 60 57 57 48 51 60 55 57 56 58 58 57
57 57 57 58 57 69 80 83 78 55 48 74 81 80 78 81 81 84 83 84 82 73 74 72 81 78 74 80 79 79 70 67 64 58 50 55 54 48 55 58 58 60 59 59 58
57 57 55 68 70 84 85 74 53 48 76 72 75 80 76 74 77 78 75 70 62 56 57 69 72 79 82 71 74 69 55 46 44 48 44 60 55 49 61 64 62 58 59 58 58
56 56 56 67 75 77 74 61 46 66 70 78 76 77 70 75 74 75 71 64 70 66 60 58 56 72 80 71 65 63 59 48 41 42 51 60 51 50 62 66 63 61 59 59 57
54 57 64 71 71 72 63 50 55 65 74 71 72 66 66 73 70 69 68 68 70 68 54 56 60 77 80 81 75 65 55 64 55 57 50 50 52 58 61 58 59 59 59 55 57
61 68 72 81 79 70 58 53 63 76 75 73 61 67 59 64 63 62 63 69 66 69 67 60 53 73 77 79 77 69 67 52 50 43 42 43 46 44 49 52 56 55 54 55 55
60 64 77 85 78 63 52 59 71 80 76 68 64 62 63 62 65 61 59 66 68 67 68 60 54 58 71 63 60 63 56 58 57 50 42 43 40 53 54 56 55 56 57 57 58
65 62 79 80 60 61 58 69 68 76 77 72 69 66 62 62 60 61 60 61 69 68 63 61 52 47 55 68 72 64 60 56 43 42 46 47 37 58 59 59 59 57 58 59 60
64 67 78 76 55 58 66 72 75 72 70 69 65 66 65 59 53 61 63 70 71 65 59 57 48 45 51 60 61 57 54 59 54 48 43 39 39 56 59 56 56 54 57 55 57
64 61 66 67 67 61 61 64 66 74 70 69 66 66 61 57 59 55 60 68 71 65 62 59 52 49 44 48 53 50 53 54 50 40 44 43 43 51 51 51 52 52 52 55 55
67 62 66 57 61 62 60 62 62 61 66 66 61 62 57 49 53 54 59 60 66 62 60 54 44 49 54 58 59 59 59 58 54 53 44 43 45 47 51 50 50 53 53 54 54
61 61 65 62 63 61 56 56 59 62 60 59 56 61 58 50 51 49 54 52 51 57 54 54 44 48 48 57 58 56 56 56 57 58 52 51 48 57 57 57 54 55 55 52 52
66 68 63 59 60 57 55 58 60 61 63 65 62 57 55 56 60 58 57 55 55 50 49 48 44 43 38 53 52 43 49 52 50 51 50 45 48 55 52 53 52 51 53 52 52
MSLP
1017.00 1016.89 1016.62 1016.42 1016.31 1016.15 1016.02 1015.81 1015.52 1015.37 1015.19 1014.96 1014.75 1014.53 1014.35 1014.02 1013.34 1012.99 1011.70 1009.18 1008.69 1008.52 1008.54 1008.30 1008.15 1007.90 1007.83 1007.81 1007.45 1007.11 1007.93 1007.81 1006.82 1005.84 1008.46 1008.98 1009.82 1011.65 1012.76 1013.77 1014.53 1013.96 1012.59 1012.45 1011.83
1016.96 1016.73 1016.53 1016.32 1016.14 1016.01 1015.90 1015.72 1015.51 1015.24 1015.12 1014.92 1014.70 1014.51 1014.39 1014.16 1013.49 1011.41 1008.42 1008.15 1007.99 1008.21 1008.31 1008.31 1008.11 1007.76 1008.09 1007.63 1007.33 1007.36 1007.62 1007.21 1006.41 1007.02 1008.58 1010.09 1010.48 1011.80 1012.79 1013.98 1013.55 1013.94 1012.56 1012.27 1011.66
1016.78 1016.57 1016.35 1016.10 1015.91 1015.89 1015.80 1015.63 1015.44 1015.21 1014.97 1014.78 1014.59 1014.35 1014.17 1013.95 1012.81 1008.60 1006.76 1007.18 1007.70 1007.94 1008.13 1008.20 1008.09 1008.29 1008.06 1007.42 1007.07 1006.82 1007.08 1007.01 1006.85 1007.79 1008.74 1010.52 1011.73 1012.41 1012.39 1013.85 1014.03 1014.31 1014.20 1014.00 1013.67
1016.67 1016.40 1016.13 1015.86 1015.75 1015.74 1015.71 1015.59 1015.38 1015.11 1014.82 1014.55 1014.44 1014.32 1014.06 1013.73 1011.16 1007.26 1006.86 1006.98 1007.58 1007.84 1008.08 1008.00 1007.98 1008.25 1007.85 1007.55 1006.71 1006.62 1006.34 1006.56 1007.31 1008.01 1009.13 1010.97 1011.82 1012.37 1012.64 1013.51 1013.52 1014.38 1014.89 1014.95 1015.13
1016.54 1016.30 1015.95 1015.71 1015.59 1015.58 1015.53 1015.44 1015.27 1015.04 1014.75 1014.54 1014.46 1014.31 1013.88 1012.79 1009.38 1006.85 1007.16 1007.38 1007.71 1007.92 1007.90 1007.98 1007.82 1007.61 1007.37 1006.83 1006.57 1006.56 1006.20 1006.75 1007.18 1008.16 1009.30 1010.93 1012.59 1013.07 1014.22 1014.11 1014.28 1014.68 1015.30 1015.78 1016.49
1016.33 1016.07 1015.79 1015.56 1015.48 1015.40 1015.36 1015.21 1015.00 1014.78 1014.57 1014.47 1014.44 1014.45 1013.90 1011.27 1006.24 1006.31 1006.73 1007.40 1007.23 1007.54 1007.61 1007.53 1007.04 1006.59 1006.77 1006.56 1006.60 1005.80 1005.86 1006.98 1007.79 1008.95 1010.24 1011.07 1012.59 1012.93 1014.82 1014.94 1015.32 1015.37 1016.19 1016.87 1017.56
1016.12 1015.85 1015.62 1015.45 1015.39 1015.25 1015.11 1014.91 1014.67 1014.49 1014.37 1014.35 1014.48 1014.19 1012.70 1008.89 1005.72 1006.26 1006.26 1006.65 1006.67 1006.86 1006.97 1006.56 1006.39 1006.97 1006.21 1006.12 1005.31 1005.44 1006.33 1007.33 1008.24 1009.04 1010.20 1010.96 1012.82 1013.86 1014.65 1015.30 1015.59 1016.04 1017.18 1017.75 1018.17
1016.01 1015.70 1015.43 1015.29 1015.26 1015.07 1014.87 1014.66 1014.37 1014.12 1014.10 1014.22 1014.36 1013.92 1011.13 1006.61 1005.97 1006.16 1005.71 1005.96 1006.01 1006.08 1006.08 1005.83 1005.70 1006.01 1006.20 1005.88 1005.56 1006.03 1006.12 1007.52 1008.39 1008.54 1009.71 1009.97 1012.98 1013.80 1014.57 1015.52 1016.39 1016.99 1017.94 1018.89 1019.36
1015.79 1015.52 1015.30 1015.20 1015.10 1014.85 1014.61 1014.38 1014.04 1013.86 1013.89 1014.03 1014.14 1013.25 1009.35 1005.51 1005.57 1005.30 1005.17 1005.42 1005.60 1005.61 1005.64 1005.43 1005.57 1006.05 1006.27 1006.76 1006.88 1006.36 1006.53 1007.10 1008.18 1008.14 1009.06 1010.33 1012.50 1013.31 1014.09 1015.16 1016.32 1017.21 1018.27 1019.27 1019.98
1015.65 1015.41 1015.18 1015.09 1014.89 1014.63 1014.40 1014.14 1013.74 1013.62 1013.57 1013.40 1012.82 1012.24 1008.34 1005.23 1004.59 1004.67 1004.73 1004.84 1005.16 1005.54 1005.84 1005.96 1006.29 1006.55 1006.95 1007.26 1007.22 1006.83 1006.58 1006.70 1007.12 1008.03 1008.63 1010.19 1011.66 1012.71 1013.63 1014.64 1015.73 1016.76 1018.02 1019.11 1020.01
1015.52 1015.23 1015.04 1014.93 1014.75 1014.59 1014.28 1013.95 1013.85 1013.15 1012.40 1010.50 1009.33 1007.97 1005.64 1004.17 1003.91 1004.56 1004.56 1004.82 1005.05 1005.50 1006.18 1006.22 1007.03 1006.99 1006.99 1006.65 1006.36 1006.15 1006.07 1006.12 1005.78 1006.51 1008.04 1009.80 1011.74 1012.82 1013.76 1014.78 1015.75 1016.68 1017.77 1019.01 1020.01
1015.27 1015.02 1014.90 1014.80 1014.67 1014.61 1014.60 1013.17 1010.25 1009.04 1008.78 1008.18 1007.30 1006.70 1005.13 1004.35 1004.00 1004.13 1004.33 1005.00 1005.16 1005.69 1006.06 1006.48 1006.41 1006.07 1005.87 1005.66 1005.60 1005.37 1005.59 1006.09 1005.84 1005.88 1008.29 1010.59 1012.22 1013.17 1013.97 1014.78 1015.58 1016.64 1017.62 1018.81 1019.92
1015.08 1014.84 1014.76 1014.71 1014.62 1014.70 1013.24 1011.00 1008.39 1008.12 1008.20 1005.60 1004.76 1004.76 1004.41 1003.80 1003.58 1003.59 1004.02 1004.61 1005.17 1005.75 1005.87 1005.94 1005.36 1004.97 1004.89 1004.75 1004.73 1004.62 1004.83 1005.58 1006.07 1006.94 1008.88 1010.80 1012.89 1013.47 1013.85 1014.54 1015.36 1016.46 1017.42 1018.63 1019.84
1014.80 1014.66 1014.60 1014.69 1014.93 1012.58 1011.24 1008.45 1008.20 1008.59 1007.86 1004.48 1002.96 1002.68 1003.42 1003.34 1003.04 1003.03 1003.31 1004.25 1004.96 1005.28 1005.42 1005.11 1004.50 1004.12 1003.91 1003.81 1003.60 1003.88 1003.71 1004.34 1005.90 1007.37 1008.98 1009.54 1012.12 1012.93 1013.34 1014.43 1015.49 1016.68 1017.68 1018.89 1019.88
1014.50 1014.44 1014.47 1014.80 1014.21 1012.01 1008.75 1007.33 1007.37 1007.80 1006.99 1002.40 1001.60 1000.84 1001.69 1002.59 1002.18 1002.40 1002.74 1003.52 1004.33 1004.83 1005.07 1004.53 1003.89 1003.33 1003.02 1002.64 1002.64 1003.04 1003.24 1004.15 1005.62 1007.31 1008.30 1009.63 1010.76 1011.22 1012.95 1014.44 1015.40 1016.55 1017.79 1019.09 1020.11
1014.26 1014.25 1014.36 1014.29 1013.72 1010.51 1008.77 1008.06 1007.69 1008.10 1005.24 1002.10 1001.45 1001.34 1001.95 1002.08 1002.41 1002.34 1002.47 1003.03 1003.58 1004.47 1004.52 1004.19 1003.26 1002.76 1002.22 1001.93 1001.98 1002.32 1003.37 1004.23 1005.31 1007.10 1008.21 1009.04 1010.18 1011.17 1011.52 1012.21 1014.50 1016.36 1017.96 1019.31 1020.31
1013.90 1013.92 1014.27 1013.02 1011.08 1009.36 1008.49 1008.41 1008.44 1007.04 1003.80 1002.85 1002.33 1001.70 1002.16 1002.47 1002.54 1002.54 1002.72 1003.36 1004.01 1004.72 1004.91 1004.24 1003.17 1002.09 1001.56 1001.63 1001.55 1002.21 1003.76 1005.18 1006.02 1006.87 1007.76 1008.55 1009.66 1009.99 1010.08 1011.29 1013.44 1015.79 1017.74 1019.13 1020.29
1013.65 1013.66 1012.92 1012.09 1010.63 1010.32 1009.77 1009.50 1008.55 1006.27 1004.87 1004.04 1003.47 1002.84 1002.87 1002.65 1002.76 1002.92 1003.15 1003.68 1003.85 1004.47 1004.92 1004.64 1003.40 1002.00 1001.34 1001.03 1001.66 1002.44 1003.52 1004.91 1006.00 1007.16 1007.73 1008.16 1009.92 1011.15 1009.68 1011.92 1013.95 1016.01 1017.71 1019.14 1020.44
1013.63 1013.30 1012.33 1010.23 1010.33 1010.56 1010.88 1009.86 1007.89 1006.20 1005.49 1005.20 1004.71 1004.22 1004.07 1003.93 1004.40 1004.31 1003.88 1004.01 1004.12 1004.86 1006.36 1005.43 1003.28 1001.66 1001.01 1000.64 1000.95 1002.10 1003.02 1004.02 1005.50 1006.88 1008.30 1009.74 1012.03 1012.89 1012.18 1013.07 1015.11 1016.59 1017.96 1019.61 1020.58
1013.59 1012.15 1010.35 1008.66 1009.33 1010.18 1010.64 1009.55 1007.80 1006.52 1006.03 1005.90 1005.79 1005.54 1005.67 1005.72 1006.02 1005.80 1005.88 1005.74 1005.58 1006.23 1006.59 1006.66 1004.69 1002.23 1001.57 1001.28 1001.00 1001.56 1002.98 1004.38 1005.71 1007.45 1009.01 1010.72 1012.17 1013.37 1014.48 1015.06 1016.15 1017.59 1018.66 1019.58 1020.65
1013.40 1011.61 1009.13 1008.40 1009.22 1010.11 1010.23 1008.94 1007.44 1006.35 1006.51 1006.63 1006.64 1006.75 1006.91 1006.86 1006.92 1007.06 1006.89 1007.25 1007.05 1006.16 1006.78 1007.58 1007.20 1004.75 1002.95 1002.83 1003.14 1003.43 1004.23 1005.58 1006.41 1007.70 1009.15 1010.63 1012.59 1012.78 1013.51 1014.98 1016.45 1017.82 1018.74 1019.55 1020.52
1012.59 1010.78 1008.91 1008.68 1009.76 1009.74 1009.41 1008.40 1007.19 1006.53 1006.60 1006.96 1007.23 1007.45 1007.72 1007.77 1007.86 1007.64 1007.54 1007.54 1007.13 1007.28 1006.92 1008.42 1009.07 1007.84 1006.26 1005.00 1003.96 1004.70 1006.62 1007.64 1009.56 1010.06 1010.22 1010.82 1013.17 1013.30 1013.96 1014.57 1016.13 1017.82 1018.48 1019.75 1020.32
1012.23 1010.26 1008.86 1008.99 1009.89 1009.94 1009.26 1008.66 1007.79 1007.56 1007.60 1007.73 1008.20 1008.51 1008.50 1008.78 1008.85 1008.23 1007.84 1007.36 1007.45 1007.84 1008.15 1008.90 1010.36 1009.68 1007.62 1006.25 1006.62 1007.85 1009.24 1008.82 1009.62 1010.88 1011.74 1012.86 1014.61 1014.26 1015.02 1015.85 1016.91 1017.99 1019.49 1020.28 1020.88
1011.99 1010.42 1009.91 1009.94 1010.29 1010.64 1010.32 1009.80 1009.20 1008.72 1008.82 1009.14 1009.21 1009.41 1009.28 1009.60 1009.67 1009.52 1009.26 1008.61 1008.54 1009.14 1009.56 1009.84 1010.15 1010.12 1009.77 1009.14 1009.17 1008.98 1009.27 1009.48 1010.08 1011.34 1012.59 1013.96 1015.84 1015.63 1016.74 1017.55 1018.15 1019.14 1019.93 1020.74 1021.27
1011.74 1011.48 1011.00 1011.24 1011.16 1011.32 1011.54 1011.33 1010.64 1010.28 1010.56 1010.34 1010.55 1010.77 1011.09 1011.24 1010.97 1010.66 1010.44 1010.39 1010.07 1010.25 1010.54 1010.71 1011.25 1010.98 1010.35 1009.86 1009.53 1008.98 1008.63 1008.99 1009.68 1010.74 1012.60 1014.05 1015.06 1015.61 1016.84 1017.96 1019.07 1019.74 1020.27 1021.13 1021.82
1013.27 1013.01 1012.15 1012.20 1012.33 1012.69 1013.11 1013.08 1012.55 1012.01 1011.88 1011.74 1011.84 1011.78 1012.10 1012.35 1012.52 1012.22 1011.78 1011.72 1011.64 1011.38 1011.69 1011.70 1011.90 1011.68 1011.32 1010.53 1009.96 1009.60 1009.57 1009.80 1010.36 1010.81 1011.54 1012.28 1013.91 1015.05 1016.58 1017.61 1019.02 1019.79 1020.43 1021.20 1021.96
1014.35 1013.47 1012.99 1013.38 1013.55 1013.85 1014.36 1014.14 1013.73 1013.44 1013.00 1012.71 1012.41 1012.62 1012.93 1013.05 1012.88 1012.55 1012.23 1012.24 1012.16 1012.33 1012.35 1012.43 1012.49 1012.63 1012.12 1012.00 1011.50 1011.69 1012.10 1011.73 1012.06 1012.29 1011.98 1013.00 1014.17 1015.53 1017.40 1018.57 1019.60 1020.28 1020.74 1021.42 1022.27
Wind_Speed
10 11 10 10 10 11 11 11 12 11 11 12 11 12 11 13 16 3 8 13 6 1 3 7 8 8 7 6 8 6 3 7 14 6 8 8 28 18 12 17 8 3 1 7 9
10 10 10 10 10 11 12 12 11 12 12 11 11 10 10 10 5 11 14 12 9 7 3 5 10 8 4 6 6 3 2 8 7 20 21 25 27 23 17 6 4 4 13 11 10
11 10 10 10 10 10 12 12 12 11 12 11 10 10 10 9 5 9 5 22 10 7 4 6 8 5 7 6 9 8 8 5 7 25 29 24 22 18 23 13 10 10 17 17 20
11 11 10 10 10 11 11 12 12 11 11 11 10 9 10 4 2 0 4 10 10 5 3 4 6 3 6 7 10 7 9 3 12 21 25 23 11 14 14 9 16 15 16 16 19
11 11 10 10 10 11 11 11 11 11 10 10 9 9 6 4 12 8 8 7 6 4 6 7 7 5 6 7 7 7 12 9 18 21 21 21 15 16 15 15 15 16 16 16 15
11 10 10 10 11 11 11 11 11 10 10 9 8 7 3 6 6 13 10 7 7 7 7 7 10 8 8 8 6 9 8 14 13 18 21 25 17 8 12 13 14 15 14 14 14
10 11 10 10 11 11 11 10 10 10 9 7 6 5 6 18 3 9 13 8 6 10 9 14 16 8 7 8 9 7 7 15 15 14 16 19 10 12 12 12 14 14 11 12 12
11 11 11 11 11 11 10 10 11 9 7 6 4 5 10 8 14 16 7 9 11 10 11 11 9 6 3 8 11 8 6 8 11 13 14 6 10 14 14 14 12 14 12 9 9
11 10 11 11 11 11 9 11 12 8 5 4 3 4 11 7 6 14 10 10 13 8 7 9 5 5 7 5 7 7 5 6 7 13 8 6 12 11 13 13 12 12 12 11 8
11 10 9 10 11 10 10 9 8 7 5 7 8 5 7 9 9 8 8 10 6 7 5 5 3 2 5 1 7 8 6 7 9 13 10 11 9 14 12 12 12 11 10 10 9
12 10 9 9 8 7 9 2 1 0 6 12 10 8 12 9 3 7 9 8 8 6 7 7 4 7 12 12 14 11 7 17 12 15 13 11 14 13 9 9 9 9 11 9 9
11 10 9 8 6 5 4 5 9 9 7 19 20 20 21 16 7 10 9 8 6 7 9 5 9 13 13 15 15 16 11 3 7 19 11 15 10 8 8 7 10 11 11 12 8
11 9 8 6 3 2 6 10 10 12 7 14 19 15 14 11 8 9 10 9 8 9 9 10 11 17 16 13 15 12 11 6 10 5 17 17 8 12 9 7 9 10 11 12 11
11 8 6 2 1 4 6 13 16 11 4 9 7 9 12 15 11 12 13 10 8 11 13 9 15 17 14 15 11 8 11 6 16 7 7 8 6 12 13 9 9 10 10 10 10
9 7 5 7 6 4 8 7 6 6 4 8 8 8 11 16 8 12 10 9 12 12 8 13 11 13 14 11 8 7 6 6 8 13 7 8 2 8 16 11 12 11 10 9 9
8 6 3 4 4 11 15 14 5 1 7 5 6 5 6 10 13 15 8 9 11 11 14 14 16 15 13 11 13 6 6 9 7 9 9 12 10 7 20 26 15 13 14 12 10
9 6 4 7 4 13 10 5 2 4 11 9 3 5 9 6 10 12 9 10 6 4 7 13 18 17 16 9 7 5 3 3 4 6 6 13 10 4 15 22 19 19 15 13 11
7 3 10 7 10 12 6 3 3 9 11 14 19 12 8 4 7 11 8 7 10 9 8 11 14 14 17 10 11 9 10 7 7 4 9 6 2 10 3 19 22 18 15 11 10
2 3 5 6 11 3 3 2 5 9 12 10 13 9 7 14 14 12 10 9 5 8 6 8 18 16 3 8 13 10 4 8 8 10 7 6 5 11 16 23 20 18 14 12 11
3 3 5 7 9 2 1 5 5 8 11 10 7 6 10 8 6 11 6 9 10 11 10 12 10 15 5 8 9 6 1 4 3 5 10 6 5 9 8 15 16 14 12 12 9
1 2 1 4 5 1 3 6 12 6 5 4 8 8 10 11 10 1 4 11 10 10 7 11 5 12 5 2 4 6 5 5 1 4 6 3 4 13 21 18 17 14 14 12 12
3 1 4 4 1 3 4 7 4 5 8 7 7 7 8 9 7 6 4 5 1 4 3 8 6 6 9 16 5 6 13 6 3 8 4 2 4 6 15 16 16 15 15 9 11
2 2 1 4 2 4 7 14 12 11 8 5 6 8 9 7 6 8 11 7 4 4 3 4 4 10 17 10 11 8 7 8 3 3 2 3 2 6 12 14 15 16 10 8 9
2 2 2 1 3 6 7 7 11 10 10 12 8 9 8 7 8 8 10 9 7 5 4 2 3 4 7 3 4 4 4 2 5 4 4 3 4 9 10 13 12 12 9 9 7
3 2 3 3 5 6 8 14 13 12 11 8 9 13 11 7 7 9 8 8 9 4 4 4 2 6 10 14 10 13 14 6 4 8 9 11 13 15 13 12 10 10 10 11 8
4 5 6 3 8 14 11 11 15 14 8 10 10 7 9 7 6 8 8 6 6 7 7 5 2 3 5 12 14 14 4 7 8 10 12 15 9 14 13 15 12 10 11 9 9
5 6 1 7 11 9 9 12 12 17 8 13 6 6 7 10 9 8 7 7 8 6 5 3 0 3 3 7 8 5 14 6 11 8 3 14 10 16 14 13 9 7 10 9 8
Wind_Direction
323 317 320 320 315 314 311 311 312 310 308 307 309 312 317 319 310 215 242 229 196 263 244 278 295 263 254 264 268 297 313 293 287 37 70 66 80 56 108 128 191 192 150 147 137
317 320 314 315 314 314 309 309 307 308 307 306 310 312 315 322 262 242 230 227 176 160 272 268 271 244 234 252 264 157 236 257 282 97 97 82 84 96 79 123 116 221 191 172 123
316 316 312 313 316 310 306 304 303 303 302 307 312 317 322 319 292 247 325 205 171 163 233 274 295 318 247 226 250 253 237 299 26 97 100 97 106 141 146 81 52 81 72 57 60
318 314 313 314 312 305 301 298 301 302 306 315 318 321 323 267 271 18 119 126 149 200 219 273 273 254 234 233 244 254 261 191 86 92 102 107 99 87 84 116 98 77 75 65 57
314 310 311 312 306 300 300 298 300 301 306 311 316 326 313 241 250 162 155 151 147 176 216 231 276 269 255 234 271 247 250 92 110 108 110 114 109 99 86 84 76 74 68 68 64
316 310 311 312 303 296 297 295 298 302 304 304 312 315 256 253 236 161 159 157 184 170 203 232 233 233 278 260 231 239 221 121 91 101 108 111 126 103 118 107 89 75 63 66 65
317 314 309 306 299 296 292 291 294 291 293 297 298 282 264 244 267 176 163 183 201 187 216 224 233 245 291 301 264 261 117 112 128 142 126 115 81 110 120 107 103 89 73 61 61
319 313 313 304 296 294 294 293 297 292 290 287 283 269 253 260 246 275 184 205 200 221 220 252 252 261 299 307 318 298 137 139 173 136 165 123 143 142 138 131 124 116 105 81 62
318 314 314 307 298 298 300 299 296 284 262 261 229 225 264 274 216 225 193 226 196 216 241 267 328 236 314 299 315 273 212 204 165 158 154 146 144 155 151 140 138 133 129 127 108
322 318 312 302 300 305 302 290 318 295 223 219 256 293 254 237 201 211 225 238 199 192 246 237 320 234 292 260 233 243 194 270 174 191 163 149 144 151 154 144 147 137 128 119 110
319 316 312 302 301 314 320 220 12 218 245 200 190 235 282 223 195 189 222 223 249 162 218 208 174 218 230 233 244 253 216 221 242 179 151 153 141 161 157 143 142 129 123 116 118
321 322 314 302 301 307 283 261 261 295 282 222 246 233 259 270 175 191 196 207 236 209 214 256 217 226 220 234 244 253 254 112 350 147 96 132 146 148 161 168 152 148 133 129 128
319 317 311 302 312 281 234 236 261 311 292 279 243 214 240 248 238 205 185 204 217 236 239 209 236 227 235 239 246 246 235 177 161 125 119 130 146 170 187 163 147 141 141 137 132
317 310 306 296 318 250 233 253 246 249 316 269 183 226 222 243 229 237 196 177 225 241 232 240 244 250 243 234 229 248 255 207 147 122 176 162 200 191 178 156 141 129 121 117 118
313 303 286 225 316 268 262 283 50 45 301 160 140 167 197 198 262 203 220 193 220 237 241 257 264 267 266 242 248 222 286 280 146 171 154 206 118 212 162 172 171 148 138 129 123
312 292 289 209 221 253 295 301 32 332 251 183 134 173 198 210 223 254 231 176 197 232 265 263 270 270 260 263 245 211 262 270 243 171 215 189 184 186 178 191 159 140 125 127 124
309 265 210 306 243 333 319 359 322 223 328 39 144 179 182 242 221 250 227 187 192 248 268 267 267 271 268 273 289 177 206 276 320 252 212 198 205 137 220 176 151 136 133 129 130
315 189 228 236 289 318 341 357 266 291 331 350 359 351 335 300 231 235 251 204 219 203 238 265 275 251 253 217 209 229 172 166 235 237 255 224 319 332 107 125 122 121 124 131 118
355 206 255 232 222 239 19 295 256 321 20 1 332 325 344 356 10 356 267 246 214 24 11 299 262 269 287 310 198 235 236 211 223 250 265 132 90 27 98 116 121 127 119 106 106
294 249 228 213 166 147 36 256 295 33 15 349 326 336 341 10 12 356 328 15 345 35 25 351 280 256 288 355 346 138 202 4 335 201 242 84 138 148 131 115 119 122 113 118 117
241 262 274 143 93 40 227 255 300 30 52 345 328 325 325 324 350 234 250 313 343 328 55 15 24 317 17 25 294 3 4 8 258 166 189 224 216 177 155 147 144 138 135 139 144
282 264 210 121 76 226 247 274 249 15 15 17 343 350 354 3 353 323 160 240 9 283 299 85 316 318 298 315 352 11 17 69 94 316 293 140 265 190 164 144 140 137 138 145 134
256 183 175 99 272 324 337 338 355 19 6 13 339 347 341 341 325 337 326 185 255 46 110 114 236 313 321 311 43 57 357 336 146 38 354 60 348 24 127 117 117 123 115 105 98
305 50 4 85 357 358 355 333 346 46 21 355 335 332 319 14 352 330 13 5 48 70 97 87 223 211 236 272 214 232 220 319 122 82 345 88 142 91 99 117 117 115 112 111 111
0 36 351 355 360 344 18 12 1 356 23 14 355 3 4 351 335 306 28 0 352 99 309 100 328 343 324 323 281 277 276 276 211 201 185 166 174 166 153 136 128 139 139 128 125
33 26 340 327 31 55 23 5 354 347 13 330 344 0 352 352 4 335 11 15 249 336 355 336 263 279 311 312 313 317 267 278 282 298 141 167 155 146 136 123 131 133 137 121 112
336 302 341 360 42 29 16 351 352 345 355 325 338 29 348 351 333 303 288 268 253 271 265 232 166 320 233 294 327 17 357 42 74 26 146 152 137 126 122 121 120 115 109 114 115